When you browse on this site, cookies collect data to enhance your experience and personalize the content and advertising you see.
Visit our Privacy Policy to learn more. By continuing to use the site, you agree to this use of cookies and data.
  • En Estados Unidos
  • Lista de países
  • Para 7 días
  • Temperatura del agua
  • Mapa Satelital
  • El tiempo en el mapa
  • Informadores
  • user-avatar
    Iniciar sesión

    Tiempo cada hora Algiers

    Hoy, 11 Diciembre, Martes

    Tiempo Temperatura Precipitaciones Viento Presión Humedad
    00:00 +13°C° 0 mm 2 mps 756 mmHg 80%
    01:00 +13°C° 0 mm 1 mps 755 mmHg 78%
    02:00 +12°C° 0 mm 1 mps 755 mmHg 76%
    03:00 +12°C° 0 mm 1 mps 755 mmHg 74%
    04:00 +12°C° 0 mm 1 mps 754 mmHg 72%
    05:00 +12°C° 0 mm 1 mps 754 mmHg 70%
    06:00 +12°C° 0 mm 1 mps 754 mmHg 68%
    07:00 +13°C° 0 mm 1 mps 754 mmHg 62%
    08:00 +15°C° 0 mm 1 mps 754 mmHg 55%
    09:00 +18°C° 0 mm 1 mps 754 mmHg 48%
    10:00 +19°C° 0 mm 1 mps 754 mmHg 43%
    11:00 +20°C° 0 mm 1 mps 754 mmHg 38%
    12:00 +22°C° 0 mm 1 mps 754 mmHg 33%
    13:00 +22°C° 0 mm 1 mps 753 mmHg 35%
    14:00 +21°C° 0 mm 1 mps 753 mmHg 37%
    15:00 +21°C° 0 mm 1 mps 753 mmHg 39%
    16:00 +19°C° 0 mm 1 mps 753 mmHg 46%
    17:00 +18°C° 0 mm 1 mps 753 mmHg 52%
    18:00 +15°C° 0 mm 1 mps 753 mmHg 59%
    19:00 +15°C° 0 mm 1 mps 753 mmHg 57%
    20:00 +15°C° 0 mm 1 mps 753 mmHg 55%
    21:00 +15°C° 0 mm 1 mps 753 mmHg 53%
    22:00 +14°C° 0 mm 1 mps 753 mmHg 51%
    23:00 +14°C° 0 mm 2 mps 753 mmHg 49%

    Mañana, 12 Diciembre, Miércoles

    Tiempo Temperatura Precipitaciones Viento Presión Humedad
    00:00 +14°C° 0 mm 2 mps 753 mmHg 48%
    01:00 +14°C° 0 mm 2 mps 752 mmHg 46%
    02:00 +14°C° 0 mm 2 mps 752 mmHg 45%
    03:00 +13°C° 0 mm 3 mps 752 mmHg 44%
    04:00 +12°C° 0 mm 3 mps 752 mmHg 43%
    05:00 +12°C° 0 mm 3 mps 752 mmHg 43%
    06:00 +12°C° 0 mm 3 mps 752 mmHg 42%
    07:00 +13°C° 0 mm 3 mps 753 mmHg 40%
    08:00 +16°C° 0 mm 3 mps 753 mmHg 38%
    09:00 +17°C° 0 mm 3 mps 753 mmHg 36%
    10:00 +18°C° 0 mm 3 mps 753 mmHg 35%
    11:00 +20°C° 0 mm 4 mps 752 mmHg 33%
    12:00 +21°C° 0 mm 4 mps 752 mmHg 31%
    13:00 +20°C° 0 mm 4 mps 752 mmHg 36%
    14:00 +20°C° 0 mm 4 mps 751 mmHg 40%
    15:00 +19°C° 0 mm 5 mps 751 mmHg 45%
    16:00 +18°C° 0 mm 4 mps 751 mmHg 53%
    17:00 +15°C° 0 mm 4 mps 751 mmHg 60%
    18:00 +14°C° 0 mm 3 mps 751 mmHg 67%
    19:00 +14°C° 0 mm 3 mps 751 mmHg 64%
    20:00 +13°C° 0 mm 3 mps 751 mmHg 61%
    21:00 +13°C° 0 mm 3 mps 751 mmHg 58%
    22:00 +13°C° 0 mm 3 mps 751 mmHg 57%
    23:00 +13°C° 0 mm 3 mps 750 mmHg 56%

    Pasado mañana, 13 Diciembre, Jueves

    Tiempo Temperatura Precipitaciones Viento Presión Humedad
    00:00 +13°C° 0 mm 3 mps 750 mmHg 55%
    01:00 +13°C° 0 mm 3 mps 749 mmHg 55%
    02:00 +13°C° 0 mm 3 mps 749 mmHg 54%
    03:00 +12°C° 0 mm 4 mps 749 mmHg 53%
    04:00 +12°C° 0 mm 4 mps 748 mmHg 53%
    05:00 +12°C° 0 mm 4 mps 748 mmHg 53%
    06:00 +12°C° 0 mm 4 mps 748 mmHg 53%
    07:00 +13°C° 0 mm 4 mps 748 mmHg 52%
    08:00 +15°C° 0 mm 4 mps 748 mmHg 50%
    09:00 +17°C° 0 mm 4 mps 747 mmHg 48%
    10:00 +17°C° 0 mm 5 mps 747 mmHg 46%
    11:00 +19°C° 0 mm 5 mps 746 mmHg 44%
    12:00 +20°C° 0 mm 6 mps 745 mmHg 42%
    13:00 +20°C° 0 mm 7 mps 745 mmHg 44%
    14:00 +20°C° 0 mm 7 mps 744 mmHg 47%
    15:00 +18°C° 0 mm 8 mps 744 mmHg 49%
    16:00 +17°C° 0.4 mm 7 mps 743 mmHg 53%
    17:00 +16°C° 0.4 mm 6 mps 743 mmHg 58%
    18:00 +15°C° 0.4 mm 5 mps 743 mmHg 62%
    19:00 +15°C° 0.3 mm 6 mps 743 mmHg 65%
    20:00 +14°C° 0.3 mm 7 mps 743 mmHg 67%
    21:00 +12°C° 0.3 mm 8 mps 743 mmHg 69%
    22:00 +12°C° 0.2 mm 8 mps 742 mmHg 70%
    23:00 +11°C° 0.2 mm 9 mps 742 mmHg 72%

    14 Diciembre, Viernes

    Tiempo Temperatura Precipitaciones Viento Presión Humedad
    00:00 +11°C° 0.2 mm 9 mps 742 mmHg 74%
    01:00 +10°C° 0.1 mm 8 mps 742 mmHg 74%
    02:00 +10°C° 0.1 mm 8 mps 741 mmHg 73%
    03:00 +9°C° 0.1 mm 7 mps 741 mmHg 72%
    04:00 +9°C° 1.2 mm 6 mps 741 mmHg 76%
    05:00 +9°C° 1.2 mm 5 mps 741 mmHg 80%
    06:00 +9°C° 1.2 mm 5 mps 741 mmHg 83%
    07:00 +10°C° 1.3 mm 4 mps 742 mmHg 82%
    08:00 +11°C° 1.3 mm 4 mps 743 mmHg 82%
    09:00 +11°C° 1.3 mm 3 mps 743 mmHg 81%
    10:00 +12°C° 0.5 mm 3 mps 744 mmHg 81%
    11:00 +12°C° 0.5 mm 3 mps 745 mmHg 82%
    12:00 +12°C° 0.5 mm 3 mps 745 mmHg 82%
    13:00 +12°C° 1.1 mm 4 mps 746 mmHg 85%
    14:00 +12°C° 1.1 mm 4 mps 746 mmHg 87%
    15:00 +12°C° 1.1 mm 4 mps 746 mmHg 90%
    16:00 +12°C° 1.3 mm 5 mps 747 mmHg 91%
    17:00 +11°C° 1.3 mm 6 mps 748 mmHg 93%
    18:00 +11°C° 1.3 mm 7 mps 749 mmHg 94%
    19:00 +11°C° 1.7 mm 8 mps 750 mmHg 93%
    20:00 +12°C° 1.7 mm 9 mps 751 mmHg 92%
    21:00 +12°C° 1.7 mm 10 mps 752 mmHg 91%
    22:00 +12°C° 1.5 mm 10 mps 752 mmHg 91%
    23:00 +12°C° 1.5 mm 10 mps 752 mmHg 92%

    15 Diciembre, Sábado

    Tiempo Temperatura Precipitaciones Viento Presión Humedad
    00:00 +11°C° 1.5 mm 10 mps 753 mmHg 92%
    01:00 +11°C° 1.5 mm 9 mps 753 mmHg 91%
    02:00 +11°C° 1.5 mm 9 mps 754 mmHg 89%
    03:00 +11°C° 1.5 mm 9 mps 754 mmHg 88%
    04:00 +11°C° 0.3 mm 8 mps 754 mmHg 87%
    05:00 +11°C° 0.3 mm 7 mps 755 mmHg 86%
    06:00 +11°C° 0.3 mm 6 mps 755 mmHg 84%
    07:00 +12°C° 0.1 mm 5 mps 756 mmHg 82%
    08:00 +13°C° 0.1 mm 5 mps 756 mmHg 80%
    09:00 +13°C° 0.1 mm 4 mps 757 mmHg 78%
    10:00 +13°C° 0.1 mm 4 mps 757 mmHg 76%
    11:00 +14°C° 0.1 mm 3 mps 757 mmHg 75%
    12:00 +14°C° 0.1 mm 3 mps 757 mmHg 74%
    13:00 +14°C° 0.1 mm 3 mps 756 mmHg 74%
    14:00 +14°C° 0.1 mm 4 mps 756 mmHg 74%
    15:00 +14°C° 0.1 mm 4 mps 756 mmHg 73%
    16:00 +13°C° 0.1 mm 4 mps 757 mmHg 76%
    17:00 +13°C° 0.1 mm 4 mps 757 mmHg 79%
    18:00 +12°C° 0.1 mm 4 mps 757 mmHg 82%
    19:00 +11°C° 0 mm 4 mps 757 mmHg 82%
    20:00 +11°C° 0 mm 4 mps 758 mmHg 83%
    21:00 +10°C° 0 mm 4 mps 758 mmHg 83%
    22:00 +10°C° 0 mm 4 mps 758 mmHg 83%
    23:00 +10°C° 0 mm 4 mps 758 mmHg 82%

    16 Diciembre, Domingo

    Tiempo Temperatura Precipitaciones Viento Presión Humedad
    00:00 +10°C° 0 mm 4 mps 758 mmHg 82%
    01:00 +10°C° 0 mm 4 mps 758 mmHg 80%
    02:00 +10°C° 0 mm 3 mps 758 mmHg 79%
    03:00 +9°C° 0 mm 3 mps 758 mmHg 78%
    04:00 +9°C° 0 mm 3 mps 758 mmHg 76%
    05:00 +9°C° 0 mm 3 mps 758 mmHg 75%
    06:00 +9°C° 0 mm 3 mps 758 mmHg 73%
    07:00 +10°C° 0 mm 3 mps 758 mmHg 68%
    08:00 +12°C° 0 mm 3 mps 758 mmHg 64%
    09:00 +13°C° 0 mm 3 mps 759 mmHg 59%
    10:00 +16°C° 0 mm 2 mps 759 mmHg 53%
    11:00 +17°C° 0 mm 2 mps 758 mmHg 46%
    12:00 +18°C° 0 mm 2 mps 758 mmHg 40%
    13:00 +18°C° 0 mm 2 mps 758 mmHg 41%
    14:00 +20°C° 0 mm 1 mps 758 mmHg 41%
    15:00 +20°C° 0 mm 1 mps 758 mmHg 41%
    16:00 +18°C° 0 mm 1 mps 758 mmHg 45%
    17:00 +16°C° 0 mm 1 mps 758 mmHg 49%
    18:00 +15°C° 0 mm 1 mps 758 mmHg 53%
    19:00 +15°C° 0 mm 1 mps 759 mmHg 53%
    20:00 +15°C° 0 mm 2 mps 759 mmHg 52%
    21:00 +15°C° 0 mm 2 mps 759 mmHg 51%
    22:00 +15°C° 0 mm 2 mps 759 mmHg 50%
    23:00 +15°C° 0 mm 2 mps 759 mmHg 50%
    Mostrar más